Wetbulb
68.68 66.14 65.12 63.73 63.16 63.05 62.74 62.40 61.20 60.53 59.40 55.35 53.91 55.68 57.35 57.82 58.88 59.34 59.12 58.30 56.35 55.22 54.57 54.97 55.09 55.27 55.15 55.73 56.75 57.30 57.83 58.54 57.12 58.61 61.32 62.85 62.95 62.94 63.40 64.15 64.79 65.45 66.67
66.74 64.81 63.79 62.81 63.10 62.29 61.20 60.33 60.14 57.91 54.14 52.15 53.00 55.61 56.32 57.21 57.42 57.44 57.97 57.38 55.82 53.68 52.19 54.40 54.84 55.51 55.29 55.85 56.19 56.83 57.04 57.89 57.40 55.49 58.72 60.01 60.94 62.09 62.29 62.64 62.66 63.34 64.90
64.80 63.48 62.90 62.21 61.42 60.63 59.69 59.17 57.84 54.28 51.61 52.50 53.99 54.88 55.39 56.51 56.25 55.09 56.42 56.69 55.52 53.89 52.46 54.07 54.64 55.13 54.76 54.57 55.62 56.61 56.72 56.34 56.83 56.87 56.69 59.34 59.95 59.64 59.88 60.21 60.32 60.41 63.56
63.64 62.72 62.03 61.01 60.30 59.60 57.67 55.69 52.60 50.80 49.48 51.01 52.48 53.50 54.54 55.58 56.34 55.53 55.89 55.92 56.01 55.47 53.77 53.18 54.66 55.23 55.55 55.28 54.92 55.09 55.65 55.06 55.20 55.18 55.62 56.41 57.68 58.30 58.70 56.36 54.53 57.60 60.60
61.86 61.13 60.32 59.66 59.13 57.41 54.52 52.84 51.40 50.70 49.31 49.13 49.84 51.32 53.00 54.89 56.00 55.56 55.03 54.80 54.61 54.93 54.53 53.28 55.23 57.32 57.56 57.79 56.03 55.58 54.12 52.77 53.18 53.45 53.78 54.11 54.09 53.77 54.50 55.02 55.18 55.99 59.35
60.93 60.10 59.45 58.64 57.73 55.68 53.50 51.51 49.19 47.52 47.01 48.12 48.74 50.11 51.71 54.30 58.33 58.57 56.03 54.39 53.41 52.25 52.01 52.20 53.62 54.19 53.13 54.40 55.98 56.03 56.81 53.92 52.77 52.03 52.49 53.05 54.18 53.98 54.85 53.36 53.52 52.24 52.59
60.94 59.21 58.62 57.74 56.16 55.21 53.04 49.19 48.36 48.28 48.89 48.34 48.89 49.48 50.28 52.32 58.73 60.55 59.20 55.40 54.11 52.17 51.63 51.52 51.85 51.63 52.04 52.66 52.22 52.41 53.33 54.96 55.15 53.99 53.05 53.50 54.77 55.59 54.68 54.43 53.14 52.36 53.34
59.86 58.64 57.75 56.58 55.35 54.74 53.27 51.65 52.21 52.57 52.11 52.00 51.85 51.79 51.11 52.19 57.39 57.08 60.86 56.36 55.30 53.51 52.05 51.79 51.87 52.47 53.11 56.65 52.79 52.36 52.13 52.60 54.04 54.81 54.05 54.36 55.10 56.48 55.86 56.08 53.99 53.04 53.42
58.06 57.57 56.95 55.80 54.44 54.36 53.49 53.01 53.31 53.30 53.05 53.33 53.83 53.80 52.84 52.84 55.58 54.59 54.53 55.28 55.74 55.06 53.43 52.82 51.97 53.21 53.19 55.96 53.46 52.02 52.97 52.99 54.18 54.76 54.72 55.44 54.01 56.49 56.34 54.71 52.07 49.78 49.22
58.16 57.88 57.02 55.58 54.64 53.85 53.52 53.01 53.43 53.66 53.60 53.64 53.86 53.69 54.42 54.58 54.36 53.90 52.40 52.75 52.64 53.01 54.52 53.79 53.36 54.76 54.02 54.09 53.70 52.11 51.27 51.97 52.97 53.77 53.16 53.35 53.53 53.21 52.98 53.67 53.23 51.04 50.46
58.88 57.39 56.05 55.40 54.62 54.29 53.48 53.57 53.85 54.25 54.56 54.52 54.87 55.40 55.16 55.13 55.66 54.31 52.51 51.72 51.83 51.04 51.34 51.57 52.07 52.68 52.81 52.62 52.52 52.90 52.89 52.67 52.71 51.55 51.32 51.89 52.47 52.55 52.89 52.48 52.74 51.98 50.31
58.06 56.73 55.54 54.86 55.44 54.10 53.60 54.00 54.44 54.24 54.62 54.46 54.58 54.95 55.72 56.25 55.31 54.83 53.91 51.96 52.03 51.72 51.23 51.26 51.55 50.81 50.94 50.84 52.94 53.56 53.39 53.85 52.65 51.12 50.70 51.06 50.68 50.67 51.59 51.99 52.26 52.20 51.38
57.46 55.85 55.17 55.05 54.91 54.03 53.80 53.65 53.65 54.14 54.16 54.05 53.97 54.44 55.05 55.81 56.49 55.03 54.44 54.48 53.49 51.18 51.78 51.73 51.46 51.40 49.73 51.12 52.76 53.93 54.39 52.65 50.58 49.93 49.78 51.15 51.22 50.76 51.41 51.30 51.58 51.78 52.48
56.24 55.34 54.89 54.61 54.34 54.05 54.30 54.46 54.34 53.74 53.95 54.34 54.05 53.97 54.06 52.10 55.33 56.29 56.80 56.27 55.49 55.51 55.15 54.54 53.03 51.41 51.31 51.60 52.31 53.36 54.71 53.09 51.69 50.62 49.79 51.28 51.13 51.38 50.30 48.79 48.31 47.88 46.70
56.66 55.50 54.67 54.86 54.56 53.69 54.56 54.57 54.67 55.57 54.54 54.28 54.43 54.36 53.46 52.40 53.26 53.83 54.30 55.72 55.65 52.70 51.10 50.11 49.68 49.91 50.66 51.23 51.31 51.94 52.96 52.25 52.67 50.64 50.55 50.41 50.07 49.80 48.30 47.74 47.06 46.21 44.72
56.31 55.61 54.63 54.49 54.13 54.38 54.24 54.52 51.67 51.37 49.95 48.37 48.06 50.15 51.72 49.53 47.76 47.79 46.19 46.42 46.94 46.60 49.12 49.44 49.39 49.30 48.98 49.80 50.43 51.33 52.95 53.51 52.19 49.81 50.67 50.22 49.43 47.76 46.68 46.58 46.01 44.81 43.75
56.54 55.99 54.75 54.07 54.49 54.25 54.28 54.36 53.93 53.14 48.45 47.21 45.78 46.00 44.26 47.65 44.99 43.51 43.31 43.64 44.05 45.55 50.02 49.34 48.98 49.27 49.62 49.92 50.67 51.61 52.43 53.43 52.98 50.94 50.51 48.85 47.53 46.78 45.92 45.27 44.81 44.56 44.31
56.74 53.72 55.52 55.14 54.48 54.10 53.97 54.04 53.47 53.09 53.80 54.69 48.82 47.14 44.86 43.33 43.24 42.36 42.07 43.83 46.37 45.32 48.38 48.84 48.91 48.90 49.66 50.35 51.63 52.27 52.95 52.29 50.84 50.45 48.82 47.03 46.09 45.75 45.20 44.51 44.29 43.38 43.82
55.14 55.34 55.11 55.18 55.14 54.55 54.12 53.57 53.48 53.23 53.21 53.68 54.40 51.77 49.82 42.52 41.99 41.18 42.04 50.57 48.79 49.68 48.38 48.15 48.69 49.22 50.75 51.87 52.77 52.86 52.89 51.49 50.30 47.83 46.64 45.85 45.63 45.42 45.02 44.39 43.64 41.77 42.77
55.45 55.50 55.18 55.27 54.78 54.30 53.75 53.97 53.91 53.41 53.33 53.25 53.15 53.48 53.93 50.94 50.81 48.77 45.91 47.35 47.99 48.60 49.68 49.57 50.69 51.63 53.02 53.05 52.96 51.62 50.45 49.29 48.03 46.84 46.24 45.56 45.60 45.20 44.55 43.76 43.46 42.90 43.08
55.90 56.29 56.38 54.98 54.59 54.27 54.25 53.75 53.74 53.00 52.97 53.83 54.32 53.68 48.63 54.23 54.75 52.49 51.62 49.27 49.79 50.44 51.42 51.42 52.69 52.61 52.03 52.11 51.19 49.10 48.47 48.14 47.24 46.73 45.83 45.43 45.36 44.64 44.71 43.81 43.28 43.21 42.91
56.24 56.32 55.98 55.00 53.53 51.96 52.34 52.93 53.07 53.19 53.35 53.27 54.26 54.82 45.76 51.81 52.55 52.04 51.50 52.61 53.42 53.19 53.48 53.03 51.31 50.75 50.15 50.06 49.41 48.21 47.93 47.79 47.65 46.53 46.01 45.65 45.16 44.83 44.00 43.25 42.92 42.71 42.56
55.50 54.23 53.66 53.27 53.10 52.24 52.84 52.62 51.80 52.64 53.59 54.42 55.00 53.66 51.60 52.11 51.70 50.95 50.98 51.29 51.32 51.11 49.60 48.68 49.12 48.95 48.89 48.76 48.32 48.24 47.74 47.89 48.34 47.40 46.35 45.61 44.86 44.21 43.49 42.46 42.25 41.71 41.84
55.63 54.90 54.69 54.65 54.17 53.78 53.51 53.49 53.76 51.06 53.31 54.40 54.14 53.00 52.73 51.07 50.98 50.13 49.25 49.86 49.87 49.75 48.47 47.89 47.96 47.54 47.56 48.05 47.87 48.11 47.90 48.31 47.66 46.97 46.37 45.30 44.23 42.84 42.53 41.71 41.44 41.48 41.38
54.96 54.65 54.63 54.50 54.16 54.09 53.98 53.82 54.86 55.57 55.45 53.83 51.76 50.72 50.58 50.42 49.54 49.21 49.52 48.89 48.76 48.21 47.94 47.86 48.00 48.36 48.44 48.63 49.00 48.43 44.58 38.47 45.00 41.50 44.54 43.59 42.81 42.48 41.41 40.69 40.68 40.91 41.31
54.07 54.13 54.26 54.28 54.22 54.57 55.07 55.06 54.89 54.60 53.22 52.29 51.46 50.81 50.05 49.67 49.33 48.97 48.96 48.12 47.66 47.49 47.64 48.13 48.49 48.30 48.88 49.46 49.16 43.56 33.99 33.87 40.32 34.89 42.91 42.33 41.51 41.35 40.54 40.11 40.28 40.52 41.04
MSLP
1011.91 1012.57 1013.31 1013.86 1014.67 1015.15 1015.81 1016.38 1016.51 1016.97 1017.45 1017.72 1017.92 1018.09 1018.24 1018.29 1018.33 1018.33 1018.63 1018.87 1018.99 1019.25 1019.37 1019.48 1019.53 1019.40 1019.26 1019.09 1018.89 1018.61 1018.22 1017.97 1017.76 1017.40 1017.24 1016.84 1016.45 1016.03 1015.50 1015.10 1014.66 1014.32 1014.00
1012.06 1012.84 1013.48 1014.16 1014.89 1015.47 1015.96 1016.47 1016.75 1017.05 1017.48 1017.88 1018.25 1018.34 1018.41 1018.40 1018.35 1018.43 1018.81 1019.12 1019.37 1019.65 1019.90 1019.85 1019.84 1019.67 1019.58 1019.40 1019.18 1018.87 1018.57 1018.37 1018.25 1018.08 1017.69 1017.25 1016.87 1016.46 1016.04 1015.47 1014.90 1014.48 1014.25
1011.89 1012.90 1013.50 1014.23 1015.02 1015.78 1016.29 1016.60 1016.93 1017.24 1017.78 1018.22 1018.58 1018.79 1018.86 1018.80 1018.86 1018.91 1019.02 1019.30 1019.58 1019.88 1020.12 1020.13 1020.14 1019.89 1019.69 1019.58 1019.26 1018.82 1018.68 1018.59 1018.45 1018.28 1017.95 1017.65 1017.23 1016.80 1016.25 1015.86 1015.43 1014.91 1014.49
1011.56 1012.58 1013.44 1014.11 1015.09 1015.85 1016.61 1017.18 1017.50 1017.66 1017.99 1018.45 1018.67 1018.80 1018.92 1019.12 1019.21 1019.26 1019.22 1019.33 1019.52 1019.90 1020.19 1020.20 1020.12 1020.02 1019.88 1019.77 1019.58 1019.41 1019.06 1018.75 1018.59 1018.40 1018.14 1017.94 1017.70 1017.28 1016.98 1016.44 1015.67 1015.39 1015.05
1011.82 1012.89 1013.54 1014.45 1015.31 1016.04 1016.87 1017.36 1017.97 1018.33 1018.49 1018.66 1018.85 1019.02 1019.17 1019.11 1019.22 1019.16 1019.24 1019.49 1019.74 1020.03 1020.24 1020.20 1020.05 1019.93 1019.87 1019.74 1019.73 1019.66 1019.42 1019.14 1018.92 1018.81 1018.54 1018.24 1018.03 1017.75 1017.46 1017.16 1016.56 1015.83 1015.51
1012.43 1013.60 1014.26 1014.82 1015.64 1016.28 1016.96 1017.57 1018.10 1018.53 1018.65 1018.83 1019.11 1019.06 1019.12 1019.17 1019.08 1019.25 1019.40 1019.54 1019.76 1019.94 1020.09 1020.24 1020.24 1020.18 1020.10 1019.98 1019.87 1019.74 1019.56 1019.42 1019.24 1019.16 1019.01 1018.65 1018.31 1018.14 1017.82 1017.52 1017.12 1016.47 1015.98
1013.47 1014.12 1014.60 1015.25 1015.92 1016.63 1017.30 1017.76 1018.15 1018.56 1018.70 1018.95 1019.13 1019.21 1019.22 1019.09 1019.07 1019.19 1019.46 1019.63 1019.80 1019.99 1020.12 1020.22 1020.27 1020.25 1020.12 1020.06 1019.93 1019.77 1019.57 1019.35 1019.13 1019.11 1018.93 1018.69 1018.40 1018.05 1017.96 1017.62 1017.43 1017.18 1016.69
1014.08 1014.34 1014.60 1015.47 1016.16 1016.71 1017.28 1017.77 1018.21 1018.41 1018.64 1019.09 1019.29 1019.24 1019.31 1019.20 1019.11 1019.21 1019.44 1019.76 1019.95 1019.99 1020.02 1020.14 1020.24 1020.19 1020.03 1019.96 1019.80 1019.66 1019.47 1019.34 1019.16 1018.97 1018.86 1018.62 1018.32 1018.04 1017.96 1017.87 1017.80 1017.40 1016.63
1010.37 1012.86 1014.39 1015.49 1015.83 1016.71 1017.28 1017.60 1017.99 1018.37 1018.74 1018.90 1019.45 1019.56 1019.16 1019.19 1019.32 1019.25 1019.46 1019.85 1019.98 1019.90 1019.84 1019.88 1019.98 1019.99 1019.83 1019.78 1019.79 1019.66 1019.45 1019.23 1018.98 1018.93 1018.85 1018.68 1018.36 1017.92 1017.72 1017.61 1017.64 1017.49 1017.00
1009.90 1011.79 1013.76 1015.19 1015.50 1016.28 1017.12 1017.70 1017.89 1018.11 1018.62 1018.86 1019.04 1019.41 1019.27 1019.09 1019.14 1019.22 1019.28 1019.63 1019.88 1019.83 1019.75 1019.70 1019.75 1019.81 1019.68 1019.61 1019.69 1019.63 1019.54 1019.31 1019.10 1018.80 1018.61 1018.37 1018.34 1018.16 1017.95 1017.90 1017.83 1017.69 1017.49
1010.45 1011.36 1013.41 1014.92 1015.49 1015.99 1016.88 1017.16 1017.60 1018.04 1018.34 1018.64 1018.78 1019.12 1019.19 1019.02 1019.01 1019.17 1019.24 1019.44 1019.62 1019.70 1019.67 1019.66 1019.64 1019.63 1019.52 1019.34 1019.29 1019.33 1019.17 1019.12 1019.16 1019.12 1018.96 1018.65 1018.28 1017.97 1017.67 1017.73 1017.75 1017.72 1017.41
1010.77 1011.62 1012.46 1014.09 1015.11 1015.81 1016.46 1017.19 1017.32 1017.85 1017.96 1018.33 1018.41 1018.71 1018.81 1018.56 1018.78 1018.96 1019.06 1019.14 1019.24 1019.34 1019.36 1019.34 1019.40 1019.46 1019.33 1019.01 1018.80 1018.59 1018.73 1019.02 1019.06 1019.02 1018.87 1018.57 1018.38 1018.19 1017.86 1017.69 1017.61 1017.56 1017.48
1011.05 1012.15 1012.74 1013.49 1014.50 1015.26 1016.11 1016.78 1017.20 1017.78 1018.06 1018.22 1018.35 1018.33 1018.17 1018.06 1018.22 1018.46 1018.69 1018.82 1018.93 1019.01 1018.92 1018.89 1018.98 1019.03 1019.00 1018.69 1018.47 1018.39 1018.41 1018.65 1018.83 1018.85 1018.67 1018.42 1018.37 1018.27 1018.10 1017.78 1017.52 1017.45 1017.08
1010.84 1012.07 1013.32 1013.68 1014.37 1015.08 1015.96 1016.43 1016.80 1017.24 1017.58 1017.74 1017.80 1017.79 1017.85 1017.67 1017.71 1017.85 1018.01 1018.31 1018.49 1018.63 1018.63 1018.77 1018.78 1018.76 1018.71 1018.53 1018.32 1018.11 1018.15 1018.18 1018.32 1018.41 1018.43 1018.28 1018.22 1018.03 1017.99 1017.98 1017.70 1017.56 1017.31
1010.51 1011.42 1012.91 1013.71 1014.10 1014.76 1015.56 1015.96 1016.41 1016.59 1016.96 1017.31 1017.21 1017.39 1017.34 1017.11 1016.94 1017.08 1017.30 1017.64 1017.83 1018.00 1018.39 1018.45 1018.49 1018.52 1018.35 1018.18 1017.97 1017.78 1017.67 1017.70 1017.75 1017.87 1017.95 1017.99 1017.97 1017.95 1017.92 1018.00 1017.81 1017.60 1017.45
1010.54 1011.29 1012.50 1013.33 1014.11 1014.76 1015.49 1015.87 1016.15 1016.39 1016.47 1016.50 1016.63 1016.80 1016.61 1016.48 1016.45 1016.66 1016.98 1017.14 1017.35 1017.67 1018.05 1018.04 1018.14 1018.05 1017.97 1017.80 1017.62 1017.33 1017.26 1017.12 1017.30 1017.49 1017.66 1017.62 1017.66 1017.74 1017.81 1017.84 1017.93 1017.81 1017.55
1010.31 1011.47 1012.47 1013.06 1013.80 1014.48 1015.10 1015.73 1015.94 1016.01 1016.10 1015.95 1015.95 1016.09 1016.19 1016.04 1015.90 1016.23 1016.44 1016.81 1017.12 1017.35 1017.21 1017.30 1017.44 1017.37 1017.27 1017.24 1017.14 1016.87 1016.68 1016.76 1016.99 1017.15 1017.32 1017.38 1017.58 1017.63 1017.69 1017.65 1017.65 1017.60 1017.28
1010.57 1011.15 1012.00 1012.62 1013.11 1013.86 1014.54 1015.07 1015.60 1015.82 1015.83 1015.61 1015.50 1015.59 1015.47 1015.65 1015.54 1015.66 1016.17 1016.78 1017.29 1017.18 1016.68 1016.65 1016.77 1016.84 1016.68 1016.64 1016.56 1016.39 1016.31 1016.57 1016.78 1016.93 1017.20 1017.43 1017.63 1017.62 1017.62 1017.61 1017.62 1017.49 1017.19
1010.38 1011.14 1011.87 1012.52 1013.06 1013.61 1014.32 1014.81 1015.07 1015.38 1015.41 1015.37 1015.22 1015.13 1015.09 1015.23 1015.08 1015.32 1015.84 1016.01 1015.96 1015.98 1016.08 1016.17 1016.07 1016.10 1016.05 1016.07 1016.03 1015.99 1016.10 1016.25 1016.48 1016.80 1017.12 1017.38 1017.47 1017.48 1017.46 1017.49 1017.40 1017.29 1017.11
1009.83 1010.82 1011.70 1012.38 1013.30 1013.88 1014.25 1014.55 1014.83 1014.91 1015.04 1015.05 1014.77 1014.41 1014.56 1014.71 1014.80 1015.17 1015.41 1015.33 1015.19 1015.18 1015.25 1015.32 1015.35 1015.48 1015.57 1015.66 1015.68 1015.78 1015.96 1016.18 1016.36 1016.60 1016.86 1017.09 1017.23 1017.36 1017.35 1017.29 1017.14 1016.91 1016.64
1009.89 1011.13 1011.66 1012.26 1012.99 1013.32 1013.73 1014.01 1014.10 1014.49 1014.50 1014.21 1013.94 1013.70 1014.00 1014.20 1013.90 1014.23 1014.44 1014.46 1014.40 1014.51 1014.64 1014.82 1014.95 1015.15 1015.31 1015.37 1015.47 1015.60 1015.72 1015.89 1016.12 1016.32 1016.59 1016.81 1017.00 1017.04 1017.12 1017.05 1016.82 1016.59 1016.35
1009.77 1010.86 1011.30 1011.95 1012.55 1012.93 1013.07 1013.26 1013.60 1013.78 1013.68 1013.57 1013.23 1013.10 1013.46 1013.65 1013.29 1013.48 1013.56 1013.82 1013.92 1014.18 1014.28 1014.50 1014.73 1014.84 1014.91 1015.04 1015.21 1015.32 1015.41 1015.50 1015.67 1015.92 1016.19 1016.44 1016.64 1016.74 1016.74 1016.61 1016.36 1016.15 1015.92
1009.51 1010.44 1011.16 1011.54 1011.95 1012.28 1012.49 1012.64 1012.90 1013.04 1012.94 1012.80 1012.83 1012.71 1012.44 1012.91 1013.02 1013.12 1013.30 1013.54 1013.76 1013.98 1014.14 1014.32 1014.41 1014.55 1014.72 1014.86 1014.93 1014.94 1014.99 1014.91 1015.00 1015.41 1015.72 1015.97 1016.17 1016.25 1016.27 1016.08 1015.85 1015.64 1015.35
1009.46 1010.31 1010.92 1011.20 1011.61 1011.91 1012.04 1012.15 1012.28 1012.36 1012.43 1012.17 1012.27 1012.25 1012.32 1012.63 1012.82 1012.95 1013.19 1013.42 1013.61 1013.81 1013.98 1014.11 1014.20 1014.32 1014.41 1014.49 1014.48 1014.41 1014.47 1014.55 1014.76 1014.92 1015.24 1015.56 1015.71 1015.77 1015.76 1015.64 1015.37 1015.10 1014.80
1009.40 1010.01 1010.70 1011.07 1011.17 1011.29 1011.35 1011.48 1011.60 1011.74 1011.80 1011.76 1012.01 1012.16 1012.33 1012.53 1012.69 1012.85 1013.06 1013.30 1013.47 1013.62 1013.78 1013.87 1013.95 1014.01 1014.06 1014.05 1013.94 1013.87 1013.96 1014.26 1014.36 1014.66 1014.99 1015.25 1015.35 1015.33 1015.24 1015.11 1014.88 1014.48 1014.14
1009.39 1009.81 1010.26 1010.58 1010.64 1010.74 1010.91 1011.01 1011.09 1011.27 1011.38 1011.51 1011.80 1012.14 1012.38 1012.54 1012.64 1012.77 1012.91 1013.08 1013.21 1013.23 1013.31 1013.47 1013.60 1013.73 1013.69 1013.54 1013.43 1013.49 1013.83 1014.10 1014.28 1014.56 1014.67 1014.82 1014.79 1014.66 1014.63 1014.48 1014.23 1013.90 1013.46
Wind_Speed
10 9 9 9 8 7 8 7 7 7 6 6 5 5 5 5 5 7 6 6 8 6 6 6 6 5 4 4 3 3 4 3 2 3 2 4 5 8 8 7 7 7 6
10 10 10 10 9 9 8 7 7 9 6 6 5 5 5 5 5 6 6 6 6 7 5 6 6 4 5 4 3 4 3 3 2 3 2 3 4 8 7 8 7 7 6
12 11 11 10 9 8 7 7 7 8 6 5 5 4 4 4 5 5 6 6 7 6 6 6 5 5 5 4 3 4 3 3 2 1 2 1 2 6 6 6 7 6 5
13 13 11 11 9 8 6 6 6 6 7 5 5 5 4 4 4 5 6 6 6 5 4 4 3 4 4 5 5 6 4 4 3 2 2 2 2 3 3 6 8 5 6
13 11 10 10 8 8 7 6 5 5 5 5 5 4 3 3 3 5 5 5 4 4 3 3 4 6 8 6 2 4 4 3 3 3 3 3 3 4 5 5 4 5 1
11 9 9 10 9 9 8 7 6 5 5 5 5 5 3 1 3 8 7 5 4 4 4 3 3 5 7 9 9 7 4 2 2 2 1 2 3 2 4 3 4 5 4
7 9 10 10 10 9 8 8 7 6 5 5 5 4 3 0 1 9 10 4 4 4 3 2 2 3 4 4 6 5 5 4 1 2 1 2 2 2 4 5 5 4 3
8 9 10 10 9 9 9 8 5 4 5 4 3 4 3 0 3 5 9 5 3 3 3 1 1 4 4 5 4 2 2 2 3 2 2 3 5 5 3 2 2 5 3
18 14 12 10 11 9 9 8 5 4 3 4 3 4 4 2 3 6 6 4 4 3 2 2 3 4 6 7 3 4 4 3 3 3 3 3 4 8 4 2 3 4 4
19 16 13 11 12 11 9 7 3 3 3 3 3 3 4 3 3 6 6 3 2 2 2 3 5 5 8 8 3 2 4 4 4 6 7 8 8 5 6 3 1 1 1
16 16 13 10 10 10 8 4 5 4 4 3 3 4 6 5 5 8 9 4 3 2 2 2 3 7 8 8 8 5 5 2 2 2 3 4 5 6 4 4 2 2 0
14 14 14 12 9 8 10 4 5 5 5 4 4 4 5 5 7 8 12 9 8 4 3 2 4 8 8 10 6 10 9 5 2 2 3 3 3 5 7 5 2 2 3
13 12 12 12 10 10 9 7 4 4 3 4 3 4 4 4 5 10 10 11 11 4 4 6 8 8 7 6 5 5 6 3 2 2 2 2 2 3 5 3 3 3 3
14 12 9 11 9 8 6 6 5 5 5 4 5 5 4 3 3 4 5 6 9 8 5 4 4 6 8 7 5 4 5 4 4 3 3 3 3 2 2 3 2 4 3
13 12 10 8 9 8 6 6 6 5 6 5 5 4 5 4 4 5 6 6 6 5 3 1 2 2 4 5 5 4 4 4 5 4 4 3 2 1 1 3 3 3 4
12 10 9 7 6 6 5 4 5 6 11 11 8 6 4 8 6 7 9 9 9 11 3 3 4 5 6 6 6 5 5 6 5 4 4 3 3 2 2 2 2 3 5
11 10 7 8 7 6 5 5 5 2 9 11 10 12 11 10 10 9 9 5 7 10 4 5 6 6 6 6 6 5 4 3 3 4 4 3 3 1 2 3 4 4 5
10 12 8 7 7 7 6 5 4 4 3 3 5 9 11 12 13 10 5 9 3 3 4 6 7 6 6 6 5 5 4 3 4 4 4 3 3 2 2 3 4 5 6
9 7 7 6 6 5 4 4 4 3 3 5 4 5 6 1 6 7 13 7 6 6 5 7 7 7 6 5 5 5 4 4 4 4 4 4 3 2 3 4 5 7 7
8 12 9 6 4 4 4 4 4 3 4 6 6 7 1 3 3 3 5 6 6 7 6 6 6 5 5 5 4 3 3 4 5 4 4 4 3 3 4 5 5 6 6
7 7 10 6 5 4 4 5 4 4 5 5 6 5 6 5 4 4 5 6 6 6 5 5 4 4 4 4 3 4 4 4 4 5 4 4 4 4 4 5 6 6 7
8 6 6 5 3 4 4 4 5 5 5 5 6 3 7 5 4 2 2 4 4 4 3 3 4 4 4 4 5 5 6 6 5 5 5 5 5 5 5 6 6 7 7
8 7 5 4 4 5 3 4 4 5 7 6 5 4 4 4 4 3 3 3 3 3 3 3 3 3 3 4 5 6 7 7 6 5 6 5 5 5 5 7 7 7 7
7 6 5 4 3 4 5 6 5 7 5 5 4 4 3 3 4 3 3 3 3 3 3 3 3 4 4 5 5 6 6 6 5 6 7 5 6 5 6 7 8 9 9
7 6 5 4 3 3 4 5 5 5 4 2 3 2 3 3 3 4 4 3 3 4 4 4 3 5 6 8 8 8 7 8 8 6 4 5 7 8 7 7 8 9 10
5 5 4 2 2 2 3 3 4 3 2 1 1 3 3 3 4 4 4 4 4 5 5 4 4 7 9 7 7 7 7 8 8 7 5 5 6 7 6 8 11 8 10
Wind_Direction
137 129 126 121 117 108 109 113 120 116 111 100 99 99 84 75 79 90 90 87 80 69 48 47 38 29 26 17 10 10 19 16 18 339 338 328 341 351 349 346 357 3 354
127 124 124 118 122 122 125 128 121 116 103 104 101 103 99 98 95 90 89 85 84 71 57 59 42 28 17 356 350 0 19 30 58 23 316 326 347 353 344 348 2 5 355
132 133 134 129 129 129 131 126 118 115 103 98 109 111 105 105 95 89 107 104 92 77 64 57 37 29 24 4 340 347 21 36 36 26 344 314 306 360 351 351 348 352 13
141 142 142 139 139 135 120 117 118 117 119 117 122 126 118 108 100 111 107 93 81 75 62 53 35 30 25 13 14 7 15 28 15 7 321 343 324 340 340 351 358 354 24
137 138 144 130 125 121 122 123 116 114 118 124 124 109 117 136 148 117 100 102 100 99 60 36 28 51 39 38 31 10 17 24 27 18 12 19 2 357 1 340 328 330 31
128 133 137 130 134 138 140 135 127 126 124 125 121 128 122 123 165 161 148 137 119 107 95 55 25 35 25 17 11 11 25 21 26 14 342 348 345 332 342 343 340 355 359
135 141 145 141 148 147 140 136 142 143 133 130 132 134 138 217 65 175 173 153 139 127 121 100 36 23 10 355 12 11 23 29 73 196 289 273 297 316 323 344 356 353 320
167 158 148 155 148 144 149 152 139 139 140 135 151 142 138 193 122 110 181 172 166 157 145 143 348 331 329 345 4 13 360 336 0 324 295 317 280 298 290 311 325 309 294
154 159 160 161 151 155 160 156 153 140 145 154 184 185 160 153 142 128 126 160 183 196 225 255 281 308 312 344 357 337 334 328 324 4 342 333 15 8 3 327 17 4 353
159 153 148 160 158 162 163 160 149 144 154 152 159 216 206 197 205 146 137 138 170 214 234 267 279 278 306 329 289 271 291 282 321 348 347 349 359 11 28 358 220 32 333
149 139 144 159 161 159 154 147 151 149 139 173 208 236 245 226 217 193 171 164 181 187 211 256 274 289 299 300 267 230 231 219 265 310 321 338 349 349 357 6 284 267 24
147 147 146 152 164 157 154 155 152 160 163 188 194 238 247 240 230 214 199 196 192 181 216 237 266 271 291 304 277 236 240 230 220 272 309 331 345 340 336 343 341 267 239
137 146 155 155 157 158 155 160 146 166 177 196 204 219 245 256 245 215 216 214 199 203 221 234 258 283 295 299 302 319 172 203 222 261 260 270 282 308 315 333 337 322 297
140 149 158 161 155 148 156 168 171 180 190 198 203 222 243 251 248 218 215 208 218 222 243 257 274 286 279 274 291 270 233 218 219 217 230 258 288 330 341 347 330 344 311
147 148 158 164 159 152 170 180 196 208 185 196 211 213 217 234 241 210 199 206 208 209 175 237 270 267 283 284 275 259 242 225 217 200 218 223 247 302 321 339 335 330 316
150 147 159 151 153 155 174 208 241 234 212 222 217 205 226 235 204 213 225 215 191 160 179 210 245 246 260 272 270 273 264 231 223 201 229 213 209 200 291 310 296 297 305
146 142 149 150 160 161 165 193 220 248 244 240 233 240 232 241 229 236 232 208 199 158 211 219 241 248 262 265 255 243 244 242 213 197 222 198 200 237 297 304 308 306 307
152 150 155 164 164 166 176 187 195 209 239 277 231 228 240 246 253 243 157 129 151 251 234 235 245 249 255 252 246 242 241 223 215 210 197 190 208 236 274 281 283 290 297
140 150 157 163 168 165 169 182 204 219 244 266 296 251 232 227 254 203 169 225 222 226 226 243 243 247 244 242 244 238 232 214 196 179 192 208 212 235 273 282 284 282 287
139 154 157 152 153 171 182 200 216 229 249 253 258 260 208 151 207 187 221 209 225 242 236 238 237 230 236 236 239 219 211 197 182 191 208 214 218 240 271 282 285 289 288
140 157 152 141 169 185 193 217 218 229 237 245 259 251 228 239 229 191 216 210 217 231 231 226 230 225 224 226 221 213 207 199 204 213 217 222 225 247 254 269 278 280 280
143 152 150 156 160 185 191 186 200 220 233 248 262 261 266 257 221 267 228 238 231 233 228 208 208 216 218 230 227 220 217 219 220 217 221 224 231 247 267 279 286 283 281
138 144 150 162 183 204 204 210 210 223 235 239 256 239 196 222 236 241 245 250 227 214 192 198 208 230 236 243 230 228 227 230 231 211 220 227 241 256 271 283 289 286 282
139 146 161 169 191 216 220 221 213 221 234 255 266 262 262 240 237 238 225 230 222 218 202 203 219 244 264 263 253 238 237 237 215 209 203 222 250 262 273 279 281 284 281
144 149 161 185 204 209 203 215 214 215 240 255 260 247 240 233 231 229 237 233 230 218 219 227 242 257 259 264 261 255 241 199 196 177 191 225 251 264 268 272 278 283 278
151 152 161 183 204 200 207 205 203 202 211 243 269 245 229 232 247 255 252 231 222 221 225 234 244 255 268 268 271 252 198 191 190 197 213 237 254 260 259 265 273 274 277